Location: Santa Cristina
(46.5667°N, 11.7167°E)
Time: 04:56:04
(UTC+00:00)

Cosmos 1356 Rocket - Pass Details

Date: 21 April 2021
Orbit: 543 x 598 km, 81.2° (Epoch: 10 May)

Event Time Altitude Azimuth Distance (km) Brightness Sun altitude
Rises 02:49:57 0° 340° (NNW) 2,763 7.1 -13.9°
Reaches altitude 10° 02:52:16 10° 331° (NNW) 1,871 6.1 -13.6°
Maximum altitude 02:55:59 33° 267° (W) 966 4.1 -13.1°
Enters shadow 02:58:39 17° 211° (SSW) 1,504 5.0 -12.7°
